When you browse on this site, cookies collect data to enhance your experience and personalize the content and advertising you see.
Visit our Privacy Policy to learn more. By continuing to use the site, you agree to this use of cookies and data.
  • In Lithuania
  • List of Countries
  • For 7 days
  • Water Temperature
  • Satellite Maps
  • Weather Map
  • Weather Widgets
  • user-avatar
    Login

    Hourly Weather San Cristóbal

    Today, 15 December, Saturday

    Time Temperature Precipitation Wind Pressure Humidity
    00:00 +20°C° 0 mm 1 mps 673 mmHg 79%
    01:00 +20°C° 0 mm 1 mps 673 mmHg 80%
    02:00 +20°C° 0 mm 1 mps 673 mmHg 80%
    03:00 +20°C° 0 mm 1 mps 673 mmHg 80%
    04:00 +19°C° 0 mm 1 mps 673 mmHg 80%
    05:00 +20°C° 0 mm 1 mps 673 mmHg 76%
    06:00 +20°C° 0 mm 1 mps 674 mmHg 71%
    07:00 +21°C° 0 mm 1 mps 674 mmHg 67%
    08:00 +23°C° 0 mm 1 mps 675 mmHg 60%
    09:00 +26°C° 0 mm 2 mps 675 mmHg 53%
    10:00 +28°C° 0 mm 2 mps 676 mmHg 47%
    11:00 +29°C° 0 mm 2 mps 675 mmHg 45%
    12:00 +29°C° 0 mm 2 mps 675 mmHg 44%
    13:00 +30°C° 0 mm 2 mps 674 mmHg 43%
    14:00 +29°C° 0 mm 2 mps 674 mmHg 45%
    15:00 +29°C° 0 mm 1 mps 673 mmHg 47%
    16:00 +28°C° 0 mm 1 mps 672 mmHg 49%
    17:00 +26°C° 0 mm 1 mps 672 mmHg 57%
    18:00 +24°C° 0 mm 1 mps 672 mmHg 65%
    19:00 +21°C° 0 mm 1 mps 672 mmHg 73%
    20:00 +21°C° 0 mm 1 mps 672 mmHg 73%
    21:00 +21°C° 0 mm 1 mps 673 mmHg 74%
    22:00 +20°C° 0 mm 1 mps 673 mmHg 75%
    23:00 +20°C° 0 mm 1 mps 673 mmHg 75%

    Tomorrow, 16 December, Sunday

    Time Temperature Precipitation Wind Pressure Humidity
    00:00 +19°C° 0 mm 1 mps 673 mmHg 75%
    01:00 +19°C° 0 mm 1 mps 673 mmHg 75%
    02:00 +19°C° 0 mm 1 mps 672 mmHg 73%
    03:00 +19°C° 0 mm 1 mps 672 mmHg 71%
    04:00 +18°C° 0 mm 1 mps 672 mmHg 70%
    05:00 +19°C° 0 mm 1 mps 673 mmHg 67%
    06:00 +20°C° 0 mm 1 mps 673 mmHg 64%
    07:00 +21°C° 0 mm 1 mps 674 mmHg 62%
    08:00 +23°C° 0 mm 1 mps 675 mmHg 55%
    09:00 +26°C° 0 mm 2 mps 675 mmHg 48%
    10:00 +28°C° 0 mm 2 mps 676 mmHg 42%
    11:00 +29°C° 0 mm 2 mps 675 mmHg 38%
    12:00 +30°C° 0 mm 2 mps 675 mmHg 35%
    13:00 +31°C° 0 mm 2 mps 674 mmHg 32%
    14:00 +31°C° 0 mm 1 mps 673 mmHg 33%
    15:00 +30°C° 0 mm 1 mps 673 mmHg 34%
    16:00 +29°C° 0 mm 1 mps 672 mmHg 35%
    17:00 +26°C° 0 mm 1 mps 672 mmHg 42%
    18:00 +23°C° 0 mm 1 mps 671 mmHg 50%
    19:00 +20°C° 0 mm 1 mps 671 mmHg 57%
    20:00 +20°C° 0 mm 1 mps 672 mmHg 57%
    21:00 +19°C° 0 mm 1 mps 672 mmHg 57%
    22:00 +19°C° 0 mm 1 mps 672 mmHg 57%
    23:00 +19°C° 0 mm 1 mps 672 mmHg 58%

    Day after tomorrow, 17 December, Monday

    Time Temperature Precipitation Wind Pressure Humidity
    00:00 +18°C° 0 mm 1 mps 672 mmHg 60%
    01:00 +18°C° 0 mm 1 mps 671 mmHg 62%
    02:00 +18°C° 0 mm 1 mps 671 mmHg 63%
    03:00 +18°C° 0 mm 1 mps 671 mmHg 64%
    04:00 +16°C° 0 mm 1 mps 671 mmHg 64%
    05:00 +18°C° 0 mm 1 mps 671 mmHg 60%
    06:00 +19°C° 0 mm 1 mps 672 mmHg 56%
    07:00 +20°C° 0 mm 1 mps 673 mmHg 52%
    08:00 +23°C° 0 mm 1 mps 674 mmHg 46%
    09:00 +26°C° 0 mm 1 mps 675 mmHg 39%
    10:00 +29°C° 0 mm 1 mps 675 mmHg 33%
    11:00 +30°C° 0 mm 1 mps 675 mmHg 32%
    12:00 +31°C° 0 mm 1 mps 674 mmHg 30%
    13:00 +32°C° 0 mm 2 mps 673 mmHg 29%
    14:00 +31°C° 0 mm 2 mps 673 mmHg 31%
    15:00 +30°C° 0 mm 1 mps 672 mmHg 33%
    16:00 +29°C° 0 mm 1 mps 671 mmHg 36%
    17:00 +26°C° 0 mm 1 mps 671 mmHg 44%
    18:00 +24°C° 0 mm 1 mps 671 mmHg 52%
    19:00 +21°C° 0 mm 1 mps 671 mmHg 61%
    20:00 +20°C° 0 mm 1 mps 671 mmHg 61%
    21:00 +20°C° 0 mm 1 mps 672 mmHg 62%
    22:00 +20°C° 0 mm 1 mps 672 mmHg 62%
    23:00 +20°C° 0 mm 1 mps 672 mmHg 63%

    18 December, Tuesday

    Time Temperature Precipitation Wind Pressure Humidity
    00:00 +19°C° 0 mm 1 mps 672 mmHg 64%
    01:00 +19°C° 0 mm 1 mps 671 mmHg 66%
    02:00 +19°C° 0 mm 1 mps 671 mmHg 68%
    03:00 +19°C° 0 mm 1 mps 671 mmHg 71%
    04:00 +19°C° 0 mm 1 mps 671 mmHg 74%
    05:00 +19°C° 0 mm 1 mps 671 mmHg 71%
    06:00 +20°C° 0 mm 1 mps 672 mmHg 68%
    07:00 +21°C° 0 mm 1 mps 673 mmHg 65%
    08:00 +23°C° 0 mm 1 mps 673 mmHg 57%
    09:00 +26°C° 0 mm 1 mps 674 mmHg 49%
    10:00 +29°C° 0 mm 1 mps 675 mmHg 41%
    11:00 +30°C° 0 mm 1 mps 674 mmHg 41%
    12:00 +30°C° 0 mm 1 mps 673 mmHg 42%
    13:00 +30°C° 0 mm 1 mps 672 mmHg 43%
    14:00 +30°C° 0 mm 1 mps 672 mmHg 44%
    15:00 +29°C° 0 mm 1 mps 671 mmHg 44%
    16:00 +29°C° 0 mm 1 mps 671 mmHg 45%
    17:00 +26°C° 0 mm 1 mps 671 mmHg 52%
    18:00 +24°C° 0 mm 1 mps 671 mmHg 59%
    19:00 +22°C° 0 mm 1 mps 671 mmHg 66%
    20:00 +21°C° 0 mm 1 mps 671 mmHg 66%
    21:00 +21°C° 0 mm 1 mps 672 mmHg 66%
    22:00 +21°C° 0 mm 1 mps 672 mmHg 67%
    23:00 +20°C° 0 mm 1 mps 672 mmHg 68%

    19 December, Wednesday

    Time Temperature Precipitation Wind Pressure Humidity
    00:00 +20°C° 0 mm 1 mps 672 mmHg 69%
    01:00 +20°C° 0 mm 1 mps 671 mmHg 70%
    02:00 +19°C° 0 mm 1 mps 671 mmHg 71%
    03:00 +19°C° 0 mm 1 mps 671 mmHg 71%
    04:00 +19°C° 0 mm 1 mps 671 mmHg 72%
    05:00 +20°C° 0 mm 1 mps 671 mmHg 68%
    06:00 +20°C° 0 mm 1 mps 672 mmHg 64%
    07:00 +21°C° 0 mm 1 mps 673 mmHg 60%
    08:00 +24°C° 0 mm 1 mps 673 mmHg 54%
    09:00 +26°C° 0 mm 1 mps 674 mmHg 48%
    10:00 +29°C° 0 mm 1 mps 675 mmHg 42%
    11:00 +30°C° 0 mm 1 mps 674 mmHg 41%
    12:00 +31°C° 0 mm 1 mps 673 mmHg 39%
    13:00 +31°C° 0 mm 1 mps 673 mmHg 38%
    14:00 +31°C° 0 mm 1 mps 672 mmHg 39%
    15:00 +30°C° 0 mm 1 mps 671 mmHg 41%
    16:00 +29°C° 0 mm 1 mps 671 mmHg 42%
    17:00 +26°C° 0 mm 1 mps 671 mmHg 50%
    18:00 +24°C° 0 mm 1 mps 671 mmHg 58%
    19:00 +21°C° 0 mm 1 mps 671 mmHg 67%
    20:00 +21°C° 0 mm 1 mps 671 mmHg 67%
    21:00 +21°C° 0 mm 1 mps 671 mmHg 67%
    22:00 +20°C° 0 mm 1 mps 672 mmHg 67%
    23:00 +20°C° 0 mm 1 mps 671 mmHg 68%

    20 December, Thursday

    Time Temperature Precipitation Wind Pressure Humidity
    00:00 +20°C° 0 mm 1 mps 671 mmHg 68%
    01:00 +19°C° 0 mm 1 mps 671 mmHg 69%
    02:00 +19°C° 0 mm 1 mps 670 mmHg 68%
    03:00 +19°C° 0 mm 1 mps 670 mmHg 67%
    04:00 +19°C° 0 mm 1 mps 670 mmHg 65%
    05:00 +20°C° 0 mm 1 mps 671 mmHg 63%
    06:00 +20°C° 0 mm 1 mps 672 mmHg 62%
    07:00 +21°C° 0 mm 1 mps 673 mmHg 60%
    08:00 +24°C° 0 mm 1 mps 673 mmHg 57%
    09:00 +26°C° 0 mm 1 mps 674 mmHg 54%
    10:00 +28°C° 0 mm 1 mps 674 mmHg 51%
    11:00 +29°C° 0 mm 1 mps 673 mmHg 49%
    12:00 +30°C° 0 mm 1 mps 673 mmHg 47%
    13:00 +31°C° 0 mm 1 mps 672 mmHg 44%
    14:00 +30°C° 0 mm 1 mps 672 mmHg 45%
    15:00 +30°C° 0 mm 1 mps 671 mmHg 47%
    16:00 +29°C° 0 mm 1 mps 671 mmHg 48%
    17:00 +27°C° 0 mm 1 mps 671 mmHg 55%
    18:00 +24°C° 0 mm 1 mps 671 mmHg 63%
    19:00 +22°C° 0 mm 1 mps 671 mmHg 70%
    20:00 +22°C° 0 mm 1 mps 671 mmHg 70%
    21:00 +21°C° 0 mm 1 mps 671 mmHg 70%
    22:00 +21°C° 0 mm 1 mps 672 mmHg 70%
    23:00 +21°C° 0 mm 1 mps 671 mmHg 70%
    Show more